Bennington, VT

1:31 PM EDT on July 27, 2017 (GMT -0400)
Morse State

Weather History for KDDH - December, 2012

Change the Weather History Date:

Wednesday, December 26, 2012

  Actual Average Record
Temperature  
Mean Temperature 16 °F 24 °F  
Max Temperature 25 °F 33 °F 49 °F (2016)
Min Temperature 6 °F 15 °F -5 °F (2000)
Degree Days  
Heating Degree Days 49 41  
Month to date heating degree days 789 951  
Since 1 July heating degree days 2241 2564  
Cooling Degree Days 0 0  
Month to date cooling degree days 0 0  
Year to date cooling degree days 476 313  
Moisture  
Dew Point 15 °F    
Average Humidity 77    
Maximum Humidity 92    
Minimum Humidity 62    
Precipitation  
Precipitation 0.00 in 0.08 in 0.24 in (2010)
Month to date precipitation 2.27 2.39  
Year to date precipitation 31.92 40.30  
Sea Level Pressure  
Sea Level Pressure 30.11 in    
Wind  
Wind Speed 1 mph (ESE)    
Max Wind Speed 7 mph    
Max Gust Speed 37 mph    
Visibility 7 miles    
Events Snow    
T = Trace of Precipitation, MM = Missing Value Source: NWS Daily Summary

Daily Weather History Graph

Daily Weather History Graph

Search for Another Location

Airport or City:

Trip Planner

Search our weather history database for the weather conditions in past years. The results will help you decide how hot, cold, wet, or windy it might be!

Date:

Astronomy

Dec. 26, 2012 Rise Set
Actual Time 7:22 AM EST 4:24 PM EST
Civil Twilight 6:50 AM EST 4:57 PM EST
Nautical Twilight 6:14 AM EST 5:33 PM EST
Astronomical Twilight 5:40 AM EST 6:07 PM EST
Moon 3:16 PM EST (12/26) 5:43 AM EST (12/26)
Length of Visible Light 10h 06m
Length of Day
9h 02m
Waxing Gibbous, 97% of the Moon is Illuminated
Dec 26
Waxing Gibbous
Dec 28
Full
Jan 4
Last Quarter
Jan 11
New
Jan 18
First Quarter

Hourly Weather History & Observations

Time (EST) Temp. Windchill Dew Point Humidity Pressure Visibility Wind Dir Wind Speed Gust Speed Precip Events Conditions
12:54 AM 10.9 °F - 8.1 °F 88% 30.30 in 10.0 mi Calm Calm - N/A   Clear
1:54 AM 12.9 °F 2.6 °F 9.0 °F 84% 30.35 in 10.0 mi SSW 6.9 mph - N/A   Clear
2:54 AM 12.0 °F - 8.1 °F 84% 30.36 in 10.0 mi Calm Calm - N/A   Clear
3:54 AM 9.0 °F - 5.0 °F 84% 30.35 in 10.0 mi Calm Calm - N/A   Clear
4:54 AM 8.1 °F 1.4 °F 3.9 °F 83% 30.32 in 10.0 mi SSW 3.5 mph - N/A   Clear
6:54 AM 8.1 °F - 3.9 °F 83% 30.32 in 10.0 mi Calm Calm - N/A   Clear
7:54 AM 8.1 °F - 5.0 °F 87% 30.32 in 10.0 mi Calm Calm - N/A   Clear
8:54 AM 14.0 °F - 10.9 °F 88% 30.32 in 10.0 mi Calm Calm - N/A   Clear
9:54 AM 17.1 °F - 10.9 °F 77% 30.33 in 10.0 mi Calm Calm - N/A   Clear
10:54 AM 18.0 °F - 10.9 °F 74% 30.29 in 10.0 mi Calm Calm - N/A   Clear
11:54 AM 19.9 °F - 12.0 °F 71% 30.26 in 10.0 mi Calm Calm - N/A   Clear
12:54 PM 21.9 °F - 12.0 °F 66% 30.22 in 10.0 mi Calm Calm - N/A   Clear
1:54 PM 23.0 °F - 12.9 °F 65% 30.19 in 10.0 mi Calm Calm - N/A   Clear
2:54 PM 25.0 °F - 14.0 °F 63% 30.19 in 10.0 mi Calm Calm - N/A   Clear
3:54 PM 24.1 °F - 14.0 °F 65% 30.15 in 10.0 mi Calm Calm - N/A   Clear
4:54 PM 24.1 °F 18.2 °F 15.1 °F 69% 30.14 in 10.0 mi North 4.6 mph - N/A   Mostly Cloudy
5:54 PM 30.0 °F - 12.0 °F 47% 30.09 in 10.0 mi Calm Calm - N/A   Overcast
6:54 PM 30.9 °F 25.2 °F 12.0 °F 46% 30.05 in 10.0 mi East 5.8 mph - N/A   Overcast
7:54 PM 30.0 °F 22.4 °F 14.0 °F 51% 30.04 in 10.0 mi East 8.1 mph 19.6 mph N/A   Overcast
8:26 PM 30.2 °F 22.6 °F 21.2 °F 69% 29.95 in 2.5 mi East 8.1 mph 19.6 mph 0.00 in Snow Light Snow
8:34 PM 28.4 °F 19.7 °F 23.0 °F 80% 29.94 in 0.8 mi East 9.2 mph 27.6 mph 0.01 in Snow Light Snow
8:54 PM 30.0 °F 21.7 °F 24.1 °F 79% 29.97 in 0.8 mi East 9.2 mph 28.8 mph 0.03 in Snow Light Snow
9:12 PM 30.2 °F 21.3 °F 24.8 °F 80% 29.92 in 1.2 mi East 10.4 mph 19.6 mph 0.00 in Snow Light Snow
9:25 PM 30.2 °F 20.2 °F 24.8 °F 80% 29.91 in 1.8 mi ESE 12.7 mph 17.3 mph 0.00 in Snow Light Snow
9:54 PM 30.0 °F 18.3 °F 24.1 °F 79% 29.91 in 1.2 mi East 17.3 mph 24.2 mph 0.01 in Snow Light Snow
10:17 PM 30.2 °F 20.2 °F 24.8 °F 80% 29.85 in 1.0 mi ESE 12.7 mph 26.5 mph 0.00 in Snow Light Snow
10:54 PM 32.0 °F 21.6 °F 25.0 °F 75% 29.86 in 1.2 mi ESE 15.0 mph 36.8 mph 0.01 in Snow Light Snow
11:27 PM 30.2 °F 21.9 °F 24.8 °F 80% 29.80 in 0.8 mi ESE 9.2 mph 28.8 mph 0.00 in Snow Light Snow
11:38 PM 30.2 °F 20.2 °F 26.6 °F 86% 29.78 in 0.5 mi East 12.7 mph 25.3 mph 0.01 in Snow Snow
11:54 PM 30.9 °F 20.2 °F 25.0 °F 79% 29.79 in 0.8 mi ESE 15.0 mph 26.5 mph 0.01 in Snow Light Snow